Vertical_Velocity
-3 2 4 -8 0 12 -15 -1 -7 7 -1 -9 9 17 -4 0 9 8 5 -0 1 0 -1 5 2 0 -2 0 2 -3 6 -2 -4 -4 -3 -1 -1 2 -1 1 -0 -1 1 1
2 5 4 16 -3 8 11 -1 7 11 1 -13 9 13 4 -3 3 -2 -10 -5 -2 -1 -5 -2 -0 -1 3 3 -2 3 4 -0 -3 -1 5 2 1 1 -1 -1 -2 -1 0 1
4 4 -10 -5 -1 -2 -9 -8 1 -1 1 -11 3 -7 4 12 2 4 11 10 4 6 1 -1 -2 0 -1 -1 -1 0 5 4 10 6 -5 -2 -1 -6 -8 1 -2 -0 -1 1
3 -5 -8 -23 4 10 -7 5 2 -6 -3 -6 14 -3 2 13 3 10 2 -4 -0 -3 -3 -3 -4 -3 -2 3 4 5 5 -11 8 -5 -30 1 7 1 7 1 -2 0 -1 2
-4 -3 6 4 2 1 6 2 -5 -9 -2 -3 -1 9 -0 10 14 -4 -5 1 1 0 1 -0 -4 2 -0 -2 1 1 5 1 1 -1 4 5 3 -1 -3 -1 -1 2 -0 1
-2 2 -3 -6 4 -8 2 1 0 -4 2 3 1 -0 -0 -29 -19 -2 -1 -1 -0 -1 -2 -2 0 1 -1 1 -2 -0 2 5 -6 1 -0 -3 -1 -0 -2 -2 -2 1 1 -2
7 1 -1 0 2 -3 4 -16 3 3 2 -4 7 7 4 -10 -13 -6 -9 -9 -7 -2 0 -5 -8 -3 -1 -4 -1 -2 -2 0 -3 -6 -6 -3 -3 -3 0 -1 -2 0 1 2
-4 1 -5 -7 1 2 4 6 -7 -4 -3 -4 0 -7 -26 -0 3 1 0 4 -1 -5 1 1 1 1 -0 1 0 -1 -0 2 1 1 1 -0 2 -1 1 1 -1 -0 -0 1
-7 -0 7 3 1 3 -8 -3 2 -6 4 -1 -5 2 -3 -8 -4 -4 -7 -3 1 -1 -6 -1 0 -1 -1 -3 1 -2 -1 2 1 2 4 3 2 -3 2 4 2 0 0 3
-1 -4 -2 3 7 2 -5 5 3 3 -3 0 -1 -1 -20 -20 -14 -6 -6 -7 -4 1 1 -1 -3 -3 -2 -0 -1 1 2 3 7 5 5 4 6 2 2 1 1 2 2 0
3 1 -2 4 -2 -12 3 6 3 2 1 -5 -2 -26 15 5 -6 -7 -7 -5 -6 -1 -6 -1 5 0 -1 5 4 2 2 -0 1 4 6 4 5 3 3 -1 1 1 2 -0
-1 3 2 -13 -5 -5 3 -7 4 1 -3 1 3 -7 4 -3 -1 5 -2 0 2 1 2 2 7 7 3 2 2 0 2 2 2 0 4 4 3 4 4 4 3 1 3 -0
-4 -0 1 5 4 2 1 1 5 2 1 -2 -1 -3 3 9 8 -3 -2 4 -0 4 6 -3 0 -2 -1 1 2 3 1 1 1 1 3 3 4 6 4 2 2 3 2 1
2 -0 -2 -10 1 -3 -0 -5 3 4 1 -4 -7 -11 -2 2 1 9 4 3 2 2 0 2 -1 3 6 7 5 4 1 1 3 1 0 3 2 1 3 2 1 6 2 2
5 -1 -2 2 -1 -1 -1 -3 -6 -8 7 -7 -0 -7 -16 4 -0 -4 2 2 6 6 5 7 6 2 2 1 1 1 1 2 2 0 -1 2 4 3 4 1 1 3 16 4
2 -0 2 -3 1 -2 -4 1 3 0 6 3 9 -28 3 3 -1 7 -9 -6 3 1 1 4 7 6 5 6 11 6 6 4 6 4 3 2 1 3 0 -2 5 1 -1 -0
1 3 3 -3 -0 2 9 -20 -2 -1 -1 4 -16 -5 -11 -11 -7 -7 3 3 -10 -9 -1 2 6 8 7 9 10 7 8 6 6 5 4 2 1 2 2 3 2 6 5 -4
1 3 2 -1 1 -2 -8 -4 -6 -4 -0 5 -6 -5 6 0 1 5 3 -1 1 1 -4 -4 -4 -5 -2 -3 -4 -2 0 1 1 -0 -1 -1 0 1 1 2 1 1 0 -0
4 6 -0 -1 0 -9 1 3 -3 1 -16 8 -5 12 -4 0 6 -2 -1 -5 -3 1 1 1 5 4 3 2 1 -1 -1 -1 0 -0 1 2 2 1 1 0 1 1 -0 2
1 3 3 5 2 -4 -1 3 3 4 -19 -0 -2 2 1 6 1 -28 11 9 9 7 4 3 -0 -1 1 0 3 5 5 2 -1 -1 -1 -2 -2 -0 -1 -0 0 -0 1 2
-0 0 -7 1 1 -6 -4 -1 4 3 -2 2 2 1 -0 -5 2 0 5 4 3 3 4 4 3 5 4 1 1 3 4 3 3 2 2 3 4 3 4 4 4 3 2 1
1 -1 -4 6 -0 -19 -0 2 7 0 2 1 1 0 -2 -1 -4 -2 1 4 4 3 3 4 2 2 1 -0 1 2 2 2 2 3 3 4 4 2 1 1 0 0 0 1
-9 -4 -0 -3 -8 2 -0 2 2 2 2 4 2 1 1 0 2 -0 -3 -4 -2 1 2 0 0 2 2 3 3 2 1 2 3 3 2 1 1 2 0 0 -0 -1 -1 -1
-7 2 -7 8 -9 -1 10 -10 2 3 3 -1 3 0 1 -0 -0 1 1 -0 -2 -2 -0 -0 0 0 1 1 0 -0 1 2 1 1 1 1 0 -0 -0 0 1 0 1 -0
2 -2 -2 -11 2 0 -1 -4 -0 -2 -2 -2 -2 -4 -1 -2 -1 -2 -1 -2 -1 -2 -1 -1 -1 -1 -0 1 1 0 -0 -0 0 0 1 1 1 1 1 1 1 1 1 2
-4 -12 2 -26 12 0 0 -0 -2 -1 -1 -4 -3 1 2 0 -2 0 -1 -3 -0 0 -0 -1 -2 -1 -0 0 0 0 1 1 1 1 1 2 2 2 1 -1 -1 -0 -0 -1
Height
3001 3004 3010 3011 3014 3017 3023 3027 3040 3046 3053 3054 3060 3067 3070 3076 3083 3088 3093 3098 3103 3108 3112 3117 3121 3125 3128 3132 3136 3140 3143 3146 3149 3154 3157 3160 3163 3166 3168 3170 3171 3172 3173 3174
3005 3009 3012 3016 3019 3024 3025 3033 3042 3048 3052 3056 3062 3067 3070 3076 3081 3087 3092 3097 3101 3105 3110 3114 3117 3120 3124 3128 3132 3136 3140 3143 3147 3151 3155 3159 3161 3164 3165 3167 3168 3170 3172 3173
3006 3013 3020 3019 3022 3023 3030 3036 3042 3047 3053 3058 3064 3065 3069 3075 3080 3085 3090 3096 3099 3103 3107 3110 3113 3116 3120 3124 3128 3132 3136 3140 3144 3147 3151 3154 3156 3159 3162 3164 3166 3167 3169 3171
3012 3018 3023 3025 3029 3031 3033 3037 3045 3048 3055 3059 3065 3067 3067 3072 3077 3081 3086 3091 3097 3101 3105 3108 3111 3113 3116 3120 3124 3128 3133 3136 3140 3142 3145 3150 3155 3158 3161 3163 3164 3165 3166 3168
3018 3022 3024 3028 3030 3034 3039 3042 3047 3053 3057 3061 3061 3064 3065 3071 3075 3078 3082 3088 3093 3098 3102 3105 3108 3111 3114 3117 3121 3125 3130 3133 3136 3137 3141 3146 3150 3154 3156 3159 3161 3163 3164 3165
3022 3022 3025 3027 3032 3037 3041 3042 3045 3052 3058 3061 3057 3062 3062 3064 3069 3075 3081 3085 3089 3094 3098 3102 3105 3107 3110 3114 3117 3122 3126 3130 3132 3135 3139 3144 3147 3149 3152 3155 3157 3159 3161 3162
3024 3028 3028 3028 3031 3037 3040 3044 3047 3054 3058 3057 3057 3061 3057 3061 3066 3071 3075 3080 3085 3091 3095 3098 3100 3102 3106 3109 3113 3117 3122 3125 3129 3133 3136 3140 3143 3145 3148 3150 3152 3154 3156 3157
3025 3031 3030 3029 3030 3032 3038 3039 3039 3048 3055 3055 3055 3052 3053 3058 3064 3069 3074 3079 3083 3086 3090 3093 3096 3099 3103 3106 3110 3113 3117 3120 3124 3128 3132 3135 3138 3140 3143 3146 3148 3149 3151 3152
3028 3028 3028 3029 3032 3032 3030 3033 3039 3041 3046 3050 3050 3047 3049 3054 3057 3062 3067 3072 3075 3079 3084 3089 3092 3096 3099 3102 3106 3109 3113 3116 3120 3124 3127 3130 3133 3136 3138 3140 3142 3143 3145 3146
3029 3030 3029 3030 3031 3034 3034 3040 3042 3039 3047 3048 3044 3041 3037 3041 3048 3052 3057 3061 3067 3074 3080 3084 3089 3092 3096 3099 3102 3105 3108 3111 3115 3119 3121 3125 3128 3130 3132 3133 3135 3136 3138 3140
3027 3029 3032 3032 3030 3031 3034 3034 3036 3038 3038 3040 3044 3029 3029 3038 3044 3049 3054 3058 3063 3067 3073 3079 3084 3087 3090 3093 3096 3099 3101 3104 3107 3110 3114 3118 3121 3123 3125 3126 3128 3130 3132 3133
3026 3025 3026 3029 3032 3033 3033 3035 3036 3035 3036 3035 3033 3030 3029 3034 3041 3046 3050 3055 3059 3064 3068 3072 3077 3080 3083 3087 3090 3094 3097 3099 3102 3105 3108 3110 3114 3117 3119 3121 3122 3124 3126 3127
3024 3024 3024 3027 3031 3028 3027 3030 3032 3033 3034 3032 3034 3029 3028 3030 3033 3040 3045 3049 3053 3056 3062 3066 3070 3074 3078 3081 3084 3088 3091 3094 3097 3100 3103 3106 3108 3110 3112 3114 3116 3118 3120 3121
3021 3020 3019 3019 3018 3021 3023 3025 3027 3029 3030 3028 3024 3027 3028 3030 3030 3033 3036 3041 3046 3050 3055 3059 3062 3065 3069 3073 3077 3081 3085 3088 3091 3094 3097 3099 3102 3104 3105 3107 3108 3111 3112 3113
3016 3014 3014 3014 3016 3017 3018 3021 3023 3024 3023 3025 3020 3022 3027 3029 3029 3030 3032 3036 3039 3043 3047 3050 3054 3058 3063 3067 3070 3074 3078 3082 3084 3087 3089 3091 3094 3096 3098 3099 3101 3102 3104 3106
3010 3009 3009 3009 3011 3012 3012 3013 3015 3017 3017 3016 3018 3014 3023 3025 3026 3028 3029 3030 3033 3038 3043 3047 3049 3053 3056 3060 3064 3067 3070 3073 3075 3078 3081 3083 3085 3087 3089 3090 3093 3093 3094 3096
3006 3006 3005 3004 3006 3006 3003 3003 3007 3009 3009 3011 3010 3005 3015 3020 3023 3025 3025 3025 3028 3031 3036 3039 3043 3047 3050 3053 3056 3059 3062 3064 3067 3069 3072 3074 3076 3078 3079 3081 3082 3084 3085 3085
2999 3000 3002 3001 3002 3002 2994 2994 2998 3000 3001 3002 3002 3003 3007 3010 3015 3018 3020 3023 3025 3027 3029 3032 3034 3037 3040 3043 3045 3048 3050 3053 3056 3059 3061 3063 3065 3067 3068 3069 3071 3072 3073 3074
2993 2994 2996 2996 2995 2991 2989 2990 2991 2992 2992 2995 2994 2997 3001 3002 3003 3005 3011 3014 3018 3021 3024 3026 3028 3029 3031 3034 3035 3037 3039 3042 3044 3047 3049 3051 3053 3055 3057 3059 3060 3061 3062 3062
2986 2988 2992 2991 2989 2987 2982 2984 2983 2984 2982 2984 2987 2988 2990 2992 2992 2997 3001 3004 3008 3011 3014 3017 3020 3022 3024 3026 3028 3030 3030 3032 3034 3036 3038 3040 3042 3044 3045 3046 3048 3049 3050 3050
2980 2982 2983 2985 2983 2977 2978 2979 2978 2981 2983 2977 2978 2979 2979 2981 2985 2988 2990 2993 2997 3000 3003 3005 3008 3011 3013 3015 3017 3020 3022 3023 3025 3026 3027 3028 3030 3031 3033 3035 3037 3038 3040 3040
2975 2976 2976 2980 2982 2977 2973 2974 2976 2976 2974 2973 2974 2974 2974 2975 2977 2979 2981 2983 2987 2990 2993 2995 2997 2999 3001 3004 3007 3009 3011 3012 3014 3016 3018 3020 3022 3024 3026 3027 3029 3030 3030 3031
2972 2971 2971 2973 2970 2969 2969 2969 2969 2969 2970 2970 2970 2970 2971 2972 2972 2974 2975 2977 2978 2980 2982 2985 2987 2989 2991 2994 2996 2999 3001 3003 3005 3007 3009 3011 3013 3014 3016 3017 3018 3019 3019 3020
2964 2966 2964 2965 2963 2964 2965 2965 2964 2963 2964 2965 2966 2965 2965 2967 2968 2969 2970 2972 2973 2974 2975 2976 2978 2980 2982 2984 2986 2988 2990 2992 2994 2997 2998 3000 3002 3003 3004 3005 3006 3007 3008 3008
2959 2958 2955 2952 2952 2954 2955 2954 2955 2955 2955 2956 2957 2959 2960 2961 2962 2963 2964 2966 2967 2968 2969 2970 2971 2972 2974 2975 2976 2978 2980 2982 2983 2985 2987 2989 2990 2992 2993 2994 2995 2996 2997 2998
2948 2947 2944 2939 2945 2943 2944 2945 2945 2946 2946 2946 2946 2948 2950 2952 2954 2955 2957 2959 2959 2960 2961 2963 2963 2964 2965 2967 2968 2970 2971 2973 2974 2975 2977 2979 2981 2982 2983 2984 2985 2987 2988 2988